"startDT [UTC]","vpos","CH4 [ppm]","stdev(CH4) [ppm]","CO2 [ppm]","stdev(CO2) [ppm]","H2O_reported [%]","stdev(H2O_reported)","CavityPressure [torr]","CavityTemp [C]","OutletValve","CH4_dry [ppm]","CO2_dry [ppm]","DasTemp [C]","EtalonTemp [C]","WarmBoxTemp [C]","MPVPosition","T_ECpre [C]","T_EC1 [C]","T_EC2 [C]","p_inlet [hPa]","p_in [hPa]","p_out [hPa]","T_inlet [C]","RH_inlet [%]","dwpt_inlet [C]","T_vent [C]","RH_vent [%]","dwpt_vent [C]","flow_vent [l min-1]","flow_inlet [l min-1]","dwpt_sample [C]","T_room [C]"
2015-04-05 00:00:00,0.0,1.92087,0.00045,404.738,0.033,0.0767,0.0018,139.998,45.000,32419.85225,1.92232,405.113,33.231,45.067,45.000,0.00,0.09,-272.73,-272.78,5,689,-3,21.5,2.4,-27.8,21.7,2.6,-26.9,5.73,2.03,-15.4,27.0
2015-04-05 00:01:00,0.0,1.92100,0.00044,404.733,0.037,0.0764,0.0017,140.003,44.999,32417.97115,1.92244,405.105,33.192,45.067,45.000,0.00,0.09,-272.71,-272.78,6,689,-3,21.5,2.4,-27.9,21.7,2.6,-26.9,5.73,1.63,-15.4,26.9
2015-04-05 00:02:00,0.0,1.92123,0.00026,404.722,0.043,0.0771,0.0014,139.998,45.000,32414.32037,1.92269,405.099,33.183,45.067,45.000,0.00,0.09,-272.72,-272.77,6,688,-3,21.4,2.4,-27.9,21.6,2.6,-26.9,5.73,2.02,-15.4,26.9
2015-04-05 00:03:00,0.0,1.92145,0.00033,404.746,0.031,0.0760,0.0013,140.001,45.000,32413.24245,1.92288,405.115,33.178,45.067,45.000,0.00,0.09,-272.72,-272.79,5,688,-3,21.4,2.4,-27.9,21.6,2.6,-26.9,5.73,1.64,-15.4,26.9
2015-04-05 00:04:00,0.0,1.92128,0.00044,404.725,0.028,0.0753,0.0014,140.002,45.000,32413.82927,1.92271,405.093,33.188,45.068,45.000,0.00,0.09,-272.72,-272.77,4,691,-2,21.5,2.4,-28.0,21.7,2.6,-26.9,5.73,2.02,-15.4,26.9
2015-04-05 00:05:00,0.0,1.92141,0.00028,404.693,0.034,0.0747,0.0015,140.000,45.000,32412.71069,1.92281,405.056,33.224,45.068,45.000,0.00,0.09,-272.72,-272.78,2,688,-5,21.5,2.3,-28.1,21.7,2.6,-26.9,5.73,1.64,-15.4,26.9
2015-04-05 00:06:00,0.0,1.92101,0.00034,404.702,0.024,0.0740,0.0016,140.001,45.000,32414.47035,1.92242,405.061,33.318,45.068,45.001,0.00,0.09,-272.73,-272.78,6,688,-3,21.6,2.3,-28.2,21.7,2.6,-26.9,5.73,2.00,-15.4,26.9
2015-04-05 00:07:00,0.0,1.92117,0.00037,404.694,0.036,0.0735,0.0014,139.999,45.001,32412.42576,1.92257,405.052,33.414,45.069,45.001,0.00,0.09,-272.72,-272.77,6,688,-4,21.7,2.3,-28.2,21.8,2.6,-26.8,5.73,1.72,-15.4,27.0
2015-04-05 00:08:00,0.0,1.92118,0.00039,404.714,0.040,0.0746,0.0014,140.001,45.001,32416.87160,1.92258,405.078,33.494,45.069,45.001,0.00,0.09,-272.72,-272.77,6,687,-4,21.7,2.3,-28.1,21.8,2.6,-26.9,5.73,1.86,-15.4,27.0
2015-04-05 00:09:00,0.0,1.92109,0.00036,404.688,0.035,0.0755,0.0013,139.999,45.001,32420.08787,1.92250,405.055,33.565,45.069,45.001,0.00,0.09,-272.73,-272.78,6,688,-5,21.8,2.3,-28.1,21.8,2.6,-26.9,5.73,1.89,-15.4,27.1
2015-04-05 00:10:00,0.0,1.92116,0.00044,404.701,0.026,0.0751,0.0014,140.000,45.002,32420.08705,1.92260,405.067,33.616,45.069,45.001,0.00,0.09,-272.72,-272.78,3,688,-0,21.8,2.3,-28.0,21.9,2.6,-26.9,5.73,1.70,-15.4,27.1
2015-04-05 00:11:00,0.0,1.92123,0.00036,404.696,0.041,0.0760,0.0016,140.002,45.002,32421.27943,1.92264,405.063,33.662,45.069,45.001,0.00,0.09,-272.72,-272.77,5,688,-3,21.8,2.3,-28.0,21.9,2.6,-26.8,5.73,2.00,-15.4,27.2
2015-04-05 00:12:00,0.0,1.92105,0.00035,404.689,0.032,0.0747,0.0013,140.000,45.001,32425.37579,1.92250,405.054,33.691,45.068,45.000,0.00,0.09,-272.72,-272.78,6,687,-3,21.8,2.3,-28.0,21.9,2.6,-26.9,5.73,1.64,-15.4,27.2
2015-04-05 00:13:00,0.0,1.92095,0.00030,404.664,0.038,0.0749,0.0013,140.003,45.001,32429.30316,1.92235,405.032,33.706,45.067,45.000,0.00,0.09,-272.72,-272.78,5,688,-3,21.9,2.3,-28.0,21.9,2.6,-26.9,5.73,2.02,-15.4,27.2
2015-04-05 00:14:00,0.0,1.92113,0.00032,404.657,0.036,0.0752,0.0021,140.001,45.000,32427.74624,1.92256,405.022,33.742,45.067,44.999,0.00,0.09,-272.71,-272.77,6,688,-3,21.8,2.3,-28.0,21.9,2.5,-27.0,5.73,1.64,-15.4,27.1
2015-04-05 00:15:00,0.0,1.92123,0.00037,404.665,0.028,0.0759,0.0018,140.000,45.000,32425.86396,1.92268,405.034,33.736,45.067,44.999,0.00,0.09,-272.72,-272.78,5,688,-3,21.8,2.4,-27.9,21.9,2.5,-27.0,5.73,2.02,-15.4,27.2
2015-04-05 00:16:00,0.0,1.92116,0.00042,404.651,0.031,0.0770,0.0020,139.999,45.000,32428.36956,1.92263,405.025,33.746,45.067,44.999,0.00,0.09,-272.72,-272.79,6,688,-3,21.8,2.4,-27.7,21.9,2.5,-27.0,5.73,1.64,-15.4,27.2
2015-04-05 00:17:00,0.0,1.92117,0.00054,404.638,0.027,0.0779,0.0018,140.002,44.999,32428.04324,1.92261,405.018,33.729,45.067,44.999,0.00,0.09,-272.72,-272.78,4,688,-3,21.7,2.4,-27.6,21.9,2.5,-27.0,5.73,2.02,-15.4,27.1
2015-04-05 00:18:00,0.0,1.92119,0.00028,404.624,0.040,0.0792,0.0021,140.002,44.999,32429.27742,1.92269,405.010,33.685,45.067,44.999,0.00,0.09,-272.71,-272.77,6,688,-3,21.7,2.5,-27.4,21.9,2.5,-27.0,5.73,1.63,-15.4,27.1
2015-04-05 00:19:00,0.0,1.92127,0.00028,404.599,0.036,0.0806,0.0015,140.002,44.999,32427.88235,1.92280,404.993,33.635,45.067,44.999,0.00,0.09,-272.73,-272.78,5,688,-3,21.7,2.5,-27.3,21.9,2.5,-27.0,5.73,2.03,-15.4,27.1
2015-04-05 00:20:00,0.0,1.92132,0.00052,404.622,0.037,0.0818,0.0022,140.002,44.999,32424.30169,1.92284,405.018,33.605,45.067,45.000,0.00,0.09,-272.72,-272.78,6,689,-3,21.7,2.5,-27.1,21.8,2.6,-27.0,5.73,1.63,-15.4,27.1
2015-04-05 00:21:00,0.0,1.92102,0.00040,404.612,0.029,0.0832,0.0020,140.001,44.999,32423.36223,1.92265,405.019,33.555,45.068,45.000,0.00,0.09,-272.72,-272.77,6,689,-3,21.7,2.6,-27.0,21.8,2.5,-27.0,5.73,2.01,-15.4,27.1
2015-04-05 00:22:00,0.0,1.92095,0.00036,404.546,0.030,0.0845,0.0013,140.003,44.999,32424.01254,1.92251,404.958,33.503,45.068,45.000,0.00,0.09,-272.72,-272.78,5,689,-3,21.7,2.6,-26.7,21.8,2.6,-27.0,5.73,1.67,-15.4,27.1
2015-04-05 00:23:00,0.0,1.92105,0.00050,404.563,0.037,0.0850,0.0016,140.001,44.999,32421.31449,1.92270,404.976,33.471,45.068,45.000,0.00,0.09,-272.73,-272.78,6,689,-3,21.6,2.7,-26.7,21.8,2.5,-27.1,5.73,1.96,-15.4,27.0
2015-04-05 00:24:00,0.0,1.92113,0.00031,404.587,0.034,0.0844,0.0019,139.998,44.999,32418.61611,1.92269,404.999,33.434,45.068,45.000,0.00,0.09,-272.72,-272.78,5,689,-3,21.6,2.7,-26.8,21.7,2.5,-27.1,5.73,1.70,-15.4,27.0
2015-04-05 00:25:00,0.0,1.92103,0.00040,404.527,0.042,0.0844,0.0016,139.999,44.999,32419.32512,1.92264,404.940,33.400,45.068,45.000,0.00,0.09,-272.73,-272.77,6,689,-3,21.5,2.6,-26.9,21.7,2.5,-27.1,5.73,1.95,-15.4,26.9
2015-04-05 00:26:00,0.0,1.92089,0.00037,404.512,0.040,0.0834,0.0016,140.001,45.000,32419.18609,1.92246,404.918,33.375,45.068,45.000,0.00,0.09,-272.71,-272.78,6,689,-3,21.5,2.6,-27.0,21.7,2.5,-27.2,5.73,1.70,-15.4,26.8
2015-04-05 00:27:00,0.0,1.92079,0.00037,404.561,0.032,0.0825,0.0017,140.000,45.000,32416.02813,1.92234,404.961,33.351,45.068,45.000,0.00,0.09,-272.73,-272.77,6,686,-2,21.5,2.6,-27.0,21.7,2.5,-27.2,5.73,1.97,-15.4,26.9
2015-04-05 00:28:00,0.0,1.92092,0.00034,404.553,0.035,0.0848,0.0016,139.998,45.000,32414.24128,1.92254,404.967,33.338,45.068,45.000,0.00,0.09,-272.71,-272.77,6,688,-3,21.5,2.7,-26.8,21.7,2.6,-27.1,5.73,1.67,-15.4,26.9
2015-04-05 00:29:00,0.0,1.92050,0.00048,404.545,0.035,0.0853,0.0020,139.999,45.000,32415.37228,1.92213,404.959,33.314,45.068,45.000,0.00,0.09,-272.73,-272.78,6,689,-3,21.5,2.7,-26.7,21.6,2.6,-27.1,5.73,2.01,-15.4,26.9
2015-04-05 00:30:00,0.0,1.92071,0.00048,404.538,0.022,0.0857,0.0016,140.002,45.000,32415.77738,1.92231,404.957,33.308,45.068,45.000,0.00,0.09,-272.72,-272.79,6,688,-3,21.5,2.7,-26.6,21.6,2.6,-27.1,5.73,1.64,-15.4,26.8
2015-04-05 00:31:00,0.0,1.92066,0.00044,404.500,0.027,0.0865,0.0021,140.001,45.000,32415.70715,1.92228,404.922,33.271,45.068,45.000,0.00,0.09,-272.72,-272.77,5,689,-3,21.4,2.7,-26.6,21.6,2.6,-27.0,5.73,2.02,-15.4,26.9
2015-04-05 00:32:00,0.0,1.92069,0.00042,404.475,0.029,0.0875,0.0012,139.998,45.000,32417.08428,1.92234,404.901,33.249,45.068,45.000,0.00,0.09,-272.71,-272.78,7,689,-3,21.5,2.7,-26.5,21.6,2.6,-27.0,5.73,1.64,-15.4,26.9
2015-04-05 00:33:00,0.0,1.92088,0.00023,404.522,0.029,0.0875,0.0019,139.998,45.000,32414.45393,1.92256,404.948,33.206,45.068,45.000,0.00,0.09,-272.73,-272.78,5,689,-3,21.4,2.7,-26.5,21.6,2.6,-27.0,5.73,2.02,-15.4,26.8
2015-04-05 00:34:00,0.0,1.92106,0.00028,404.501,0.046,0.0874,0.0014,139.998,45.000,32413.88818,1.92274,404.926,33.181,45.068,45.000,0.00,0.09,-272.72,-272.78,7,689,-3,21.4,2.7,-26.5,21.6,2.6,-26.9,5.73,1.64,-15.4,26.8
2015-04-05 00:35:00,0.0,1.92096,0.00030,404.521,0.033,0.0876,0.0015,140.001,45.000,32415.24492,1.92260,404.947,33.154,45.068,45.000,0.00,0.09,-272.72,-272.77,5,689,-3,21.3,2.8,-26.5,21.5,2.6,-26.9,5.73,2.02,-15.4,26.8
2015-04-05 00:36:00,0.0,1.92118,0.00036,404.563,0.037,0.0876,0.0020,140.001,45.000,32413.96824,1.92281,404.990,33.126,45.068,45.000,0.00,0.09,-272.72,-272.78,6,689,-3,21.3,2.7,-26.6,21.5,2.6,-26.9,5.73,1.64,-15.4,26.8
2015-04-05 00:37:00,0.0,1.92106,0.00046,404.575,0.018,0.0872,0.0016,139.999,45.000,32413.32308,1.92270,404.998,33.126,45.068,45.000,0.00,0.09,-272.72,-272.77,6,689,-3,21.3,2.7,-26.6,21.5,2.7,-26.8,5.73,2.03,-15.4,26.7
2015-04-05 00:38:00,0.0,1.92118,0.00034,404.613,0.036,0.0857,0.0017,139.998,44.999,32410.69699,1.92281,405.031,33.125,45.068,45.000,0.00,0.09,-272.71,-272.77,6,689,-3,21.3,2.7,-26.7,21.5,2.7,-26.8,5.73,1.63,-15.5,26.7
2015-04-05 00:39:00,0.0,1.92122,0.00045,404.665,0.037,0.0848,0.0013,139.999,45.000,32409.67515,1.92283,405.075,33.127,45.068,45.000,0.00,0.09,-272.72,-272.78,7,689,-3,21.3,2.7,-27.0,21.4,2.7,-26.8,5.73,2.03,-15.4,26.6
2015-04-05 00:40:00,0.0,1.92135,0.00024,404.667,0.039,0.0844,0.0017,140.000,45.000,32409.93959,1.92296,405.080,33.125,45.067,45.000,0.00,0.09,-272.72,-272.77,5,689,-3,21.2,2.7,-26.9,21.4,2.7,-26.7,5.73,1.63,-15.4,26.7
2015-04-05 00:41:00,0.0,1.92115,0.00036,404.643,0.034,0.0854,0.0023,140.001,45.000,32410.25979,1.92274,405.060,33.123,45.067,44.999,0.00,0.09,-272.72,-272.78,7,689,-3,21.2,2.7,-26.8,21.4,2.7,-26.7,5.73,2.03,-15.4,26.6
2015-04-05 00:42:00,0.0,1.92124,0.00031,404.622,0.047,0.0869,0.0020,139.999,45.000,32410.05993,1.92290,405.046,33.116,45.067,45.000,0.00,0.09,-272.71,-272.78,5,689,-3,21.2,2.7,-26.7,21.4,2.7,-26.7,5.73,1.64,-15.4,26.7
2015-04-05 00:43:00,0.0,1.92103,0.00027,404.650,0.029,0.0863,0.0023,140.000,45.000,32409.58429,1.92266,405.068,33.067,45.067,44.999,0.00,0.09,-272.72,-272.78,7,689,-3,21.2,2.8,-26.6,21.4,2.7,-26.6,5.73,2.03,-15.4,26.7
2015-04-05 00:44:00,0.0,1.92095,0.00042,404.636,0.032,0.0867,0.0019,140.000,45.000,32411.88784,1.92258,405.058,33.063,45.068,45.000,0.00,0.09,-272.72,-272.77,5,689,-3,21.2,2.8,-26.5,21.4,2.7,-26.6,5.73,1.63,-15.4,26.6
2015-04-05 00:45:00,0.0,1.92130,0.00028,404.623,0.026,0.0873,0.0011,140.003,45.000,32411.63493,1.92296,405.048,33.052,45.068,45.000,0.00,0.09,-272.72,-272.77,7,689,-3,21.2,2.8,-26.5,21.4,2.7,-26.6,5.73,2.03,-15.5,26.6
2015-04-05 00:46:00,0.0,1.92134,0.00031,404.607,0.040,0.0889,0.0018,139.997,45.000,32409.66774,1.92303,405.043,33.016,45.068,45.000,0.00,0.09,-272.72,-272.78,6,689,-3,21.2,2.8,-26.4,21.4,2.7,-26.6,5.73,1.63,-15.5,26.6
2015-04-05 00:47:00,0.0,1.92128,0.00034,404.588,0.030,0.0888,0.0012,139.999,45.000,32409.97049,1.92295,405.019,33.000,45.068,45.000,0.00,0.09,-272.73,-272.78,6,689,-3,21.2,2.8,-26.3,21.4,2.7,-26.5,5.73,2.03,-15.5,26.6
2015-04-05 00:48:00,0.0,1.92117,0.00047,404.604,0.034,0.0892,0.0021,140.000,45.000,32410.33538,1.92288,405.038,32.986,45.068,45.000,0.00,0.09,-272.72,-272.78,7,689,-3,21.2,2.9,-26.2,21.4,2.7,-26.5,5.73,1.63,-15.5,26.6
2015-04-05 00:49:00,0.0,1.92111,0.00038,404.597,0.043,0.0911,0.0018,140.002,45.000,32408.94970,1.92282,405.039,32.971,45.068,45.000,0.00,0.09,-272.72,-272.78,5,689,-3,21.2,2.9,-26.1,21.4,2.8,-26.5,5.73,2.02,-15.5,26.5
2015-04-05 00:50:00,0.0,1.92111,0.00036,404.591,0.031,0.0917,0.0016,140.002,45.000,32407.72441,1.92284,405.038,32.992,45.068,45.000,0.00,0.09,-272.73,-272.78,7,689,-3,21.2,2.9,-26.0,21.3,2.8,-26.5,5.73,1.65,-15.5,26.5
2015-04-05 00:51:00,0.0,1.92119,0.00032,404.607,0.038,0.0916,0.0014,140.001,45.000,32407.55712,1.92294,405.055,32.992,45.068,45.000,0.00,0.09,-272.73,-272.77,5,689,-3,21.2,2.9,-25.9,21.3,2.8,-26.5,5.73,2.00,-15.5,26.5
2015-04-05 00:52:00,0.0,1.92094,0.00035,404.587,0.025,0.0922,0.0013,140.000,45.000,32409.29691,1.92266,405.035,33.000,45.068,45.000,0.00,0.09,-272.72,-272.77,7,689,-3,21.2,3.0,-25.8,21.3,2.8,-26.5,5.73,1.69,-15.5,26.5
2015-04-05 00:53:00,0.0,1.92149,0.00041,404.599,0.036,0.0922,0.0012,140.000,45.000,32406.06826,1.92324,405.048,33.000,45.068,45.000,0.00,0.09,-272.73,-272.79,5,689,-3,21.2,2.9,-26.0,21.3,2.8,-26.4,5.73,1.93,-15.5,26.4
2015-04-05 00:54:00,0.0,1.92144,0.00041,404.588,0.041,0.0904,0.0017,140.000,45.000,32405.40373,1.92317,405.029,33.002,45.068,45.000,0.00,0.09,-272.72,-272.77,7,689,-3,21.2,2.9,-26.0,21.3,2.8,-26.4,5.73,1.76,-15.5,26.4
2015-04-05 00:55:00,0.0,1.92143,0.00029,404.585,0.040,0.0903,0.0017,140.000,45.000,32405.65194,1.92313,405.024,33.000,45.068,45.000,0.00,0.09,-272.71,-272.77,5,689,-3,21.2,2.9,-26.2,21.3,2.8,-26.5,5.73,1.85,-15.5,26.4
2015-04-05 00:56:00,0.0,1.92141,0.00036,404.618,0.028,0.0894,0.0016,140.001,45.000,32404.98634,1.92310,405.055,33.000,45.068,45.000,0.00,0.09,-272.73,-272.78,7,689,-3,21.2,2.9,-26.2,21.3,2.8,-26.4,5.73,1.86,-15.5,26.4
2015-04-05 00:57:00,0.0,1.92147,0.00040,404.631,0.040,0.0885,0.0015,139.999,45.000,32405.03307,1.92309,405.060,32.998,45.068,45.000,0.00,0.09,-272.71,-272.79,5,689,-3,21.2,2.9,-26.3,21.3,2.8,-26.4,5.73,1.77,-15.5,26.4
2015-04-05 00:58:00,0.0,1.92150,0.00042,404.651,0.032,0.0901,0.0016,140.002,45.000,32403.63131,1.92322,405.091,32.991,45.068,45.000,0.00,0.09,-272.72,-272.77,7,689,-3,21.1,2.9,-26.1,21.3,2.8,-26.4,5.73,1.93,-15.5,26.4
2015-04-05 00:59:00,0.0,1.92133,0.00049,404.658,0.044,0.0910,0.0014,140.000,45.000,32403.76470,1.92313,405.101,32.986,45.068,45.000,0.00,0.09,-272.72,-272.78,6,689,-3,21.1,2.9,-26.0,21.3,2.8,-26.3,5.73,1.70,-15.5,26.4
2015-04-05 01:00:00,0.0,1.92129,0.00023,404.640,0.031,0.0920,0.0016,140.000,45.000,32404.79723,1.92301,405.089,32.982,45.068,45.000,0.00,0.09,-272.73,-272.78,7,689,-3,21.1,2.9,-26.0,21.3,2.8,-26.3,5.73,1.99,-15.5,26.4
2015-04-05 01:01:00,0.0,1.92154,0.00034,404.647,0.036,0.0906,0.0015,140.002,45.000,32402.82386,1.92323,405.089,32.996,45.068,45.000,0.00,0.09,-272.72,-272.78,6,689,-3,21.1,2.9,-26.0,21.3,2.8,-26.3,5.73,1.65,-15.5,26.4
2015-04-05 01:02:00,0.0,1.92142,0.00035,404.637,0.023,0.0908,0.0015,140.000,45.000,32403.87392,1.92316,405.079,32.994,45.068,45.000,0.00,0.09,-272.72,-272.77,6,689,-3,21.2,2.9,-26.0,21.3,2.8,-26.3,5.73,2.02,-15.5,26.4
2015-04-05 01:03:00,0.0,1.92137,0.00037,404.637,0.028,0.0905,0.0017,140.001,45.000,32405.96132,1.92307,405.078,32.993,45.068,45.000,0.00,0.09,-272.73,-272.78,7,689,-3,21.2,2.9,-26.0,21.3,2.9,-26.2,5.73,1.64,-15.5,26.4
2015-04-05 01:04:00,0.0,1.92159,0.00025,404.595,0.033,0.0915,0.0011,140.000,45.000,32403.48451,1.92331,405.043,32.990,45.068,45.000,0.00,0.09,-272.73,-272.78,6,689,-3,21.2,2.9,-26.0,21.3,2.9,-26.1,5.73,2.02,-15.5,26.4
2015-04-05 01:05:00,0.0,1.92159,0.00033,404.621,0.025,0.0922,0.0016,139.998,45.000,32401.16951,1.92335,405.069,32.996,45.068,45.000,0.00,0.09,-272.72,-272.77,7,689,-3,21.2,2.9,-25.9,21.3,2.9,-26.1,5.73,1.64,-15.5,26.4
2015-04-05 01:06:00,0.0,1.92134,0.00037,404.601,0.047,0.0928,0.0013,139.999,45.000,32402.77435,1.92309,405.052,32.990,45.068,45.000,0.00,0.09,-272.73,-272.78,5,689,-3,21.2,2.9,-25.9,21.3,2.9,-26.1,5.73,2.02,-15.5,26.4
2015-04-05 01:07:00,0.0,1.92164,0.00039,404.595,0.041,0.0946,0.0021,139.999,45.000,32401.14574,1.92343,405.057,32.975,45.068,45.000,0.00,0.09,-272.73,-272.78,7,689,-3,21.2,3.0,-25.6,21.3,2.9,-26.1,5.73,1.64,-15.5,26.4
2015-04-05 01:08:00,0.0,1.92164,0.00032,404.625,0.035,0.0963,0.0015,140.000,45.000,32399.37868,1.92346,405.092,32.986,45.068,45.000,0.00,0.09,-272.72,-272.78,5,689,-3,21.2,3.0,-25.5,21.3,2.9,-26.2,5.73,2.03,-15.5,26.4
2015-04-05 01:09:00,0.0,1.92133,0.00024,404.630,0.027,0.0962,0.0018,140.001,45.000,32399.23283,1.92314,405.099,32.985,45.068,45.000,0.00,0.09,-272.72,-272.78,7,689,-3,21.2,3.1,-25.4,21.3,2.9,-26.1,5.73,1.64,-15.5,26.4
2015-04-05 01:10:00,0.0,1.92140,0.00047,404.573,0.033,0.0970,0.0018,139.999,45.000,32400.48548,1.92325,405.047,32.997,45.068,45.000,0.00,0.09,-272.73,-272.78,6,689,-3,21.2,3.1,-25.3,21.3,2.9,-26.1,5.73,2.02,-15.5,26.4
2015-04-05 01:11:00,0.0,1.92127,0.00041,404.542,0.031,0.0987,0.0014,139.999,45.000,32400.00765,1.92313,405.022,33.000,45.068,45.000,0.00,0.09,-272.72,-272.77,7,689,-3,21.2,3.1,-25.3,21.3,2.9,-26.1,5.73,1.65,-15.5,26.4
2015-04-05 01:12:00,0.0,1.92160,0.00048,404.496,0.031,0.0981,0.0013,140.000,45.000,32399.91246,1.92344,404.975,33.000,45.068,45.000,0.00,0.09,-272.72,-272.78,6,689,-3,21.2,3.1,-25.2,21.3,2.9,-26.1,5.73,2.00,-15.5,26.4
2015-04-05 01:13:00,0.0,1.92171,0.00032,404.487,0.037,0.0996,0.0013,140.000,45.000,32398.49048,1.92359,404.972,32.998,45.068,45.000,0.00,0.09,-272.72,-272.78,6,689,-3,21.2,3.1,-25.2,21.3,2.9,-26.0,5.73,1.67,-15.5,26.4
2015-04-05 01:14:00,0.0,1.92172,0.00034,404.509,0.041,0.0972,0.0018,140.003,45.000,32398.27085,1.92360,404.982,33.000,45.068,45.000,0.00,0.09,-272.72,-272.78,7,689,-3,21.2,3.1,-25.2,21.3,2.9,-25.9,5.73,1.98,-15.5,26.4
2015-04-05 01:15:00,0.0,1.92164,0.00035,404.518,0.026,0.0975,0.0021,140.003,45.000,32398.89092,1.92347,404.994,32.997,45.068,45.000,0.00,0.09,-272.72,-272.77,6,689,-3,21.2,3.1,-25.4,21.3,2.9,-26.0,5.73,1.71,-15.5,26.3
2015-04-05 01:16:00,0.0,1.92131,0.00032,404.551,0.028,0.0970,0.0015,140.002,45.000,32399.07864,1.92316,405.023,32.982,45.068,45.000,0.00,0.09,-272.73,-272.78,7,689,-3,21.1,3.1,-25.4,21.3,2.9,-26.0,5.73,1.92,-15.5,26.3
2015-04-05 01:17:00,0.0,1.92121,0.00035,404.539,0.029,0.0979,0.0020,140.000,45.000,32400.66815,1.92307,405.016,32.949,45.068,45.000,0.00,0.09,-272.72,-272.78,6,689,-3,21.1,3.1,-25.2,21.2,2.9,-25.9,5.73,1.78,-15.5,26.3
2015-04-05 01:18:00,0.0,1.92117,0.00026,404.523,0.039,0.0999,0.0017,139.999,45.000,32397.58126,1.92306,405.010,32.947,45.068,45.000,0.00,0.09,-272.72,-272.77,7,689,-3,21.1,3.2,-25.1,21.2,2.9,-25.9,5.73,1.83,-15.5,26.3
2015-04-05 01:19:00,0.0,1.92115,0.00034,404.522,0.030,0.1001,0.0019,139.997,45.000,32398.67946,1.92304,405.010,32.952,45.068,45.000,0.00,0.09,-272.72,-272.77,6,689,-3,21.1,3.2,-25.0,21.2,2.9,-25.9,5.73,1.89,-15.5,26.3
2015-04-05 01:20:00,0.0,1.92116,0.00043,404.531,0.041,0.1003,0.0013,140.001,45.000,32400.00263,1.92306,405.019,32.983,45.068,45.000,0.00,0.09,-272.72,-272.78,7,689,-3,21.1,3.2,-25.0,21.2,3.0,-25.8,5.73,1.73,-15.5,26.3
2015-04-05 01:21:00,0.0,1.92110,0.00038,404.542,0.043,0.0995,0.0022,140.002,45.000,32398.28604,1.92298,405.028,33.000,45.068,45.000,0.00,0.09,-272.72,-272.77,6,689,-3,21.1,3.2,-25.1,21.2,3.0,-25.8,5.73,1.98,-15.5,26.2
2015-04-05 01:22:00,0.0,1.92116,0.00041,404.514,0.033,0.1001,0.0018,139.997,45.000,32398.85244,1.92304,404.999,32.998,45.068,45.000,0.00,0.09,-272.71,-272.78,7,689,-3,21.0,3.2,-25.1,21.2,3.0,-25.7,5.73,1.66,-15.5,26.3
2015-04-05 01:23:00,0.0,1.92111,0.00040,404.510,0.039,0.1012,0.0015,140.000,45.000,32399.84004,1.92305,405.005,32.999,45.068,45.000,0.00,0.09,-272.73,-272.78,6,689,-3,21.1,3.2,-25.0,21.2,3.0,-25.7,5.73,2.02,-15.5,26.3
2015-04-05 01:24:00,0.0,1.92113,0.00034,404.492,0.029,0.1008,0.0017,140.000,45.000,32398.89744,1.92304,404.982,32.989,45.068,45.000,0.00,0.09,-272.72,-272.78,8,689,-3,21.0,3.3,-24.9,21.2,3.0,-25.7,5.73,1.64,-15.5,26.3
2015-04-05 01:25:00,0.0,1.92114,0.00043,404.487,0.027,0.1018,0.0018,139.999,45.000,32396.56162,1.92307,404.985,32.987,45.068,45.000,0.00,0.09,-272.72,-272.78,6,689,-3,21.1,3.3,-24.8,21.2,3.0,-25.6,5.73,2.01,-15.5,26.3
2015-04-05 01:26:00,0.0,1.92099,0.00036,404.488,0.031,0.1008,0.0018,140.003,45.000,32398.79907,1.92291,404.979,32.990,45.068,45.000,0.00,0.09,-272.72,-272.78,7,689,-3,21.1,3.2,-24.9,21.2,3.0,-25.6,5.73,1.67,-15.5,26.3
2015-04-05 01:27:00,0.0,1.92131,0.00030,404.500,0.039,0.1009,0.0017,139.999,45.000,32396.36691,1.92320,404.992,32.998,45.068,45.000,0.00,0.09,-272.73,-272.79,6,689,-3,21.1,3.3,-24.9,21.2,3.0,-25.6,5.73,1.96,-15.5,26.3
2015-04-05 01:28:00,0.0,1.92114,0.00038,404.472,0.029,0.1022,0.0019,139.999,45.000,32398.42690,1.92307,404.968,33.003,45.068,45.000,0.00,0.09,-272.73,-272.78,7,689,-3,21.1,3.3,-24.8,21.2,3.0,-25.5,5.73,1.73,-15.5,26.2
2015-04-05 01:29:00,0.0,1.92119,0.00040,404.469,0.030,0.1023,0.0018,140.002,45.000,32400.53303,1.92313,404.967,33.005,45.068,45.000,0.00,0.09,-272.72,-272.78,6,689,-3,21.1,3.3,-24.8,21.2,3.1,-25.5,5.73,1.91,-15.5,26.2
2015-04-05 01:30:00,0.0,1.92101,0.00031,404.476,0.024,0.1019,0.0013,140.001,45.000,32399.88472,1.92297,404.973,33.006,45.068,45.000,0.00,0.09,-272.73,-272.78,7,689,-2,21.2,3.3,-24.8,21.2,3.1,-25.5,5.73,1.79,-15.5,26.3
2015-04-05 01:31:00,0.0,1.92150,0.00032,404.459,0.044,0.1017,0.0015,139.997,45.000,32397.86479,1.92340,404.953,33.009,45.068,45.000,0.00,0.09,-272.73,-272.78,6,689,-3,21.2,3.3,-24.7,21.2,3.1,-25.5,5.73,1.83,-15.5,26.3
2015-04-05 01:32:00,0.0,1.92129,0.00040,404.495,0.036,0.1016,0.0019,139.998,45.000,32398.32512,1.92321,404.991,33.010,45.068,45.000,0.00,0.09,-272.72,-272.77,7,689,-2,21.1,3.3,-24.8,21.2,3.1,-25.4,5.73,1.88,-15.5,26.3
2015-04-05 01:33:00,0.0,1.92117,0.00037,404.545,0.034,0.1004,0.0016,140.001,45.000,32397.97795,1.92308,405.035,33.035,45.068,45.000,0.00,0.09,-272.72,-272.78,6,689,-2,21.1,3.2,-24.9,21.2,3.1,-25.4,5.73,1.74,-15.5,26.3
2015-04-05 01:34:00,0.0,1.92120,0.00036,404.501,0.039,0.1019,0.0015,139.998,45.000,32398.46240,1.92314,404.995,33.016,45.068,45.000,0.00,0.09,-272.73,-272.78,7,689,-2,21.1,3.3,-24.8,21.2,3.1,-25.4,5.73,1.96,-15.5,26.2
2015-04-05 01:35:00,0.0,1.92137,0.00038,404.509,0.023,0.1033,0.0017,140.000,45.000,32398.20046,1.92331,405.013,33.002,45.068,45.000,0.00,0.09,-272.72,-272.77,6,689,-2,21.1,3.3,-24.8,21.2,3.1,-25.4,5.73,1.67,-15.5,26.2
2015-04-05 01:36:00,0.0,1.92131,0.00043,404.542,0.041,0.1037,0.0017,140.000,45.000,32396.40088,1.92328,405.045,33.000,45.068,45.000,0.00,0.09,-272.72,-272.78,7,689,-3,21.2,3.3,-24.6,21.2,3.1,-25.3,5.73,2.02,-15.5,26.3
2015-04-05 01:37:00,0.0,1.92121,0.00025,404.528,0.029,0.1036,0.0014,139.998,45.000,32397.81283,1.92318,405.035,33.000,45.068,45.000,0.00,0.09,-272.72,-272.78,6,689,-2,21.2,3.3,-24.7,21.2,3.1,-25.3,5.73,1.64,-15.5,26.3
2015-04-05 01:38:00,0.0,1.92139,0.00035,404.540,0.040,0.1023,0.0019,140.003,45.000,32397.86812,1.92333,405.039,33.006,45.068,45.000,0.00,0.09,-272.72,-272.78,6,689,-2,21.2,3.3,-24.8,21.2,3.1,-25.2,5.73,2.02,-15.5,26.2
2015-04-05 01:39:00,0.0,1.92132,0.00037,404.509,0.036,0.1013,0.0012,139.998,45.000,32398.48963,1.92323,405.000,33.024,45.068,45.000,0.00,0.09,-272.72,-272.77,7,689,-2,21.1,3.2,-24.9,21.2,3.1,-25.2,5.73,1.67,-15.5,26.2
2015-04-05 01:40:00,0.0,1.92143,0.00046,404.529,0.032,0.1001,0.0017,139.999,45.000,32397.80915,1.92331,405.016,33.024,45.068,45.000,0.00,0.09,-272.73,-272.79,6,689,-2,21.2,3.2,-25.0,21.2,3.1,-25.2,5.73,1.95,-15.5,26.2
2015-04-05 01:41:00,0.0,1.92143,0.00025,404.552,0.027,0.1015,0.0013,140.001,45.000,32398.45542,1.92337,405.047,33.012,45.068,45.000,0.00,0.09,-272.73,-272.78,7,689,-2,21.2,3.2,-25.0,21.2,3.1,-25.2,5.73,1.76,-15.5,26.2
2015-04-05 01:42:00,0.0,1.92139,0.00031,404.529,0.029,0.1013,0.0019,140.005,45.000,32399.71917,1.92331,405.024,33.010,45.068,45.000,0.00,0.09,-272.72,-272.78,6,689,-2,21.2,3.2,-24.9,21.2,3.1,-25.2,5.73,1.85,-15.5,26.2
2015-04-05 01:43:00,0.0,1.92162,0.00037,404.539,0.032,0.1029,0.0014,140.002,45.000,32398.50241,1.92355,405.040,33.020,45.068,45.000,0.00,0.09,-272.73,-272.77,7,689,-2,21.2,3.3,-24.8,21.2,3.2,-25.1,5.73,1.86,-15.4,26.2
2015-04-05 01:44:00,0.0,1.92116,0.00034,404.540,0.033,0.1044,0.0014,140.002,45.000,32400.52215,1.92317,405.049,33.049,45.068,45.000,0.00,0.09,-272.73,-272.78,6,689,-2,21.2,3.3,-24.6,21.2,3.2,-25.1,5.73,1.75,-15.5,26.2
2015-04-05 01:45:00,0.0,1.92139,0.00027,404.548,0.041,0.1048,0.0014,139.998,45.000,32400.06360,1.92336,405.058,33.037,45.068,45.000,0.00,0.09,-272.72,-272.78,7,689,-2,21.2,3.3,-24.6,21.2,3.2,-25.1,5.73,1.96,-15.4,26.2
2015-04-05 01:46:00,0.0,1.92158,0.00049,404.580,0.022,0.1026,0.0019,140.002,45.000,32398.82773,1.92353,405.079,33.023,45.068,45.000,0.00,0.09,-272.71,-272.78,6,689,-2,21.2,3.2,-24.9,21.2,3.2,-25.1,5.73,1.67,-15.4,26.2